Weather in Mawlamyine

Myanmar     16°29′14″N   97°37′52″E
temp.,
°C
wind,
m/s
gust,
m/s
humid.,
%
clouds,
%
prec.,
mm/h
press.,
hPa
HPBL,
m
16 april, fri
fri1600:30+28sw26788 0.6 1009253
03:30+27sw117871 0.2 100819
06:30+26se2283100 0.3 1009155
09:30+27sse2279100 0.0 1012234
12:30+33w3254100 0.4 10091481
15:30+31wsw6660100 0.9 1006891
18:30+28wsw5971100 3.1 1009494
21:30+26n2481100 3.3 1011235
17 april, sat
sat1700:30+25e248696 3.3 1010209
03:30+25se1286100 0.0 1009126
06:30+26e118691 0.0 1010149
09:30+26s2382100 1.4 1013235
12:30+26sse347485 2.4 1011337
15:30+31sse445323 0.0 10081369
18:30+28s34675 0.0 1010128
21:30+26se24798 0.3 1012125
18 april, sun
sun1800:30+24s128842 3.1 101161
03:30+24ese1287100 1.1 101076
06:30+24ese2386100 1.1 1011169
09:30+26se2378100 0.2 1013317
12:30+24s2386100 1.1 1011255
15:30+24se2487100 1.2 1009272
18:30+23se249094 1.2 1009171
21:30+23sse12905 0.0 101038
19 april, mon
mon1900:30+23ne00900 0.0 101011
03:30+22ene229241 0.1 100930
06:30+23e128992 0.1 1011108
09:30+27se227360 0.0 1012458
12:30+32sw225254 0.1 10081610
15:30+31sw555825 0.1 1006872
18:30+28ssw47690 0.1 1007337
21:30+27s36761 0.3 1009251
20 april, tue
tue2000:30+25se118656 3.4 100925
03:30+24sse249099 1.6 1008112
06:30+25sse2386100 1.6 1009135
09:30+30s226656 0.1 10101092
12:30+31wsw5463100 0.4 10081025
15:30+32wsw435626 0.6 10061304
18:30+28ssw36702 0.8 1007205
21:30+27ssw37780 0.0 1009253